Regional Weather Roundup
Issued by NWS

Home | Current Version | Previous Version | Graphics & Text | Print | Product List | Glossary On
Versions: 1 2 3 4 5 6 7 8 9 10 11 12 13 14 15 16 17 18 19 20 21 22 23 24 25 26 27 28 29 30 31 32 33 34 35 36 37 38 39 40 41 42 43 44 45 46 47 48 49 50
345
ASUS43 KBIS 291310
RWRND

NORTH DAKOTA REGIONAL WEATHER ROUNDUP
NATIONAL WEATHER SERVICE BISMARCK ND
800 AM CDT FRI APR 29 2016

NOTE: "FAIR" INDICATES FEW OR NO CLOUDS BELOW 12,000 FEET WITH NO
SIGNIFICANT WEATHER AND/OR OBSTRUCTIONS TO VISIBILITY.


NDZ001>003-009>011-017-291400-
NORTHWEST NORTH DAKOTA

CITY           SKY/WX    TMP DP  RH WIND       PRES   REMARKS
WILLISTON      MOSUNNY   37  26  64 NE5       30.18S
MINOT          MOSUNNY   40  23  50 N6        30.20S
MINOT AFB      CLOUDY    36  23  58 N5        30.20S
$$

NDZ018>021-031>035-040>046-291400-
SOUTHWEST NORTH DAKOTA

CITY           SKY/WX    TMP DP  RH WIND       PRES   REMARKS
BISMARCK       SUNNY     37  30  75 E5        30.19R
DICKINSON      CLOUDY    38  30  73 E7        30.12S
GARRISON         N/A     37  26  64 NE5       30.18S
HETTINGER ARPT CLOUDY    39  33  79 E3        30.14R
$$

NDZ004>008-012>016-024-026-027-054-291400-
NORTHEAST NORTH DAKOTA

CITY           SKY/WX    TMP DP  RH WIND       PRES   REMARKS
GRAND FORKS    CLOUDY    39  31  72 N10       30.21S
GRND FRKS AFB  PTSUNNY   38  28  66 N12       30.22R
DEVILS LAKE    MOSUNNY   38  28  67 NE3       30.22R
$$

NDZ022-023-025-028>030-036>039-047>053-291400-
SOUTHEAST NORTH DAKOTA

CITY           SKY/WX    TMP DP  RH WIND       PRES   REMARKS
FARGO          CLOUDY    41  35  79 CALM      30.17R
JAMESTOWN      SUNNY     40  30  67 NE8       30.17R
$$





USA.gov is the U.S. government's official web portal to all federal, state and local government web resources and services.